sat.trackr.live / text

‹ back to catalog

ICEYE-X40

NORAD 60549 · 2024-149CK

PAYLOAD ACTIVE UNKNOWN

§ Identity

Operator
Country
UAE
Launch date
2024-08-16
Launch site
AFWTR
Launch vehicle
Mass (kg)
RCS (m²)

External: N2YO · Heavens-Above · Gunter

§ Orbital elements

Epoch: 2026-05-25T02:56:12.139872Z

Period
96.14 min
Inclination
97.6815°
Eccentricity
0.0005286
Mean motion
14.97860948 rev/d
Perigee alt
569.8 km
Apogee alt
577.2 km
Semi-major
6,951.6 km
B*
9.5385e-5
RAAN
221.9907°
Arg perigee
140.8448°
Mean anomaly
219.3157°
Rev number
9,662

§ Raw data

ICEYE-X401 60549U 24149CK  26145.12236273  .00001064  00000+0  95385-4 0  99922 60549  97.6815 221.9907 0005286 140.8448 219.3157 14.97860948 96629

JSON: /api/v1/satellites/60549 · /tle

For live sub-satellite position, see the globe view (requires WebGL).

§ Visibility from observer

Set your observer location to see the next 7 days of passes ≥ 10°. The values pass through the URL so the page stays shareable.

No JS? Fill the form by hand. The geolocation button needs JavaScript.

§ Radio — SatNOGS DB

ModeDescriptionDownlinkUplink
FM Mode S - Transmitter 2.270 GHz

1 transmitter · refreshed weekly from db.satnogs.org